sat.trackr.live / text

‹ back to catalog

STARLINK-37165

NORAD 68287 · 2026-055AB

PAYLOAD ACTIVE UNKNOWN

§ Identity

Operator
Country
US
Launch date
2026-03-19
Launch site
AFETR
Launch vehicle
Mass (kg)
RCS (m²)

Purposes: comms

External: N2YO · Heavens-Above · Gunter

§ Orbital elements

Epoch: 2026-09-19T23:15:36.116064Z

Period
93.85 min
Inclination
53.1592°
Eccentricity
0.0001363
Mean motion
15.34408904 rev/d
Perigee alt
461.7 km
Apogee alt
463.6 km
Semi-major
6,840.8 km
B*
7.0995e-4
RAAN
132.0358°
Arg perigee
89.3058°
Mean anomaly
270.8101°
Rev number
2,974

§ Raw data

STARLINK-371651 68287U 26055AB  26262.96916801  .00023693  00000+0  70995-3 0  99922 68287  53.1592 132.0358 0001363  89.3058 270.8101 15.34408904 29745

JSON: /api/v1/satellites/68287 · /tle

For live sub-satellite position, see the globe view (requires WebGL).

§ Visibility from observer

Set your observer location to see the next 7 days of passes ≥ 10°. The values pass through the URL so the page stays shareable.

No JS? Fill the form by hand. The geolocation button needs JavaScript.